When you browse on this site, cookies collect data to enhance your experience and personalize the content and advertising you see.
Visit our Privacy Policy to learn more. By continuing to use the site, you agree to this use of cookies and data.
  • In Hungary
  • List of Countries
  • For 7 days
  • Water Temperature
  • Weather Map
  • News
  • Weather Widgets
  • user-avatar
    Login

    Hourly Weather Yazovo

    Today, 4 April, Saturday

    Time Temperature Precipitation Wind Pressure Humidity
    00:00 -1°C° 0 mm 3 mps 730 mmHg 79%
    01:00 -2°C° 0 mm 3 mps 731 mmHg 78%
    02:00 -2°C° 0 mm 3 mps 731 mmHg 77%
    03:00 -2°C° 0 mm 3 mps 732 mmHg 78%
    04:00 -2°C° 0 mm 3 mps 733 mmHg 79%
    05:00 -2°C° 0 mm 3 mps 733 mmHg 80%
    06:00 -1°C° 0 mm 3 mps 734 mmHg 73%
    07:00 -1°C° 0 mm 4 mps 735 mmHg 66%
    08:00 0°C° 0 mm 4 mps 736 mmHg 59%
    09:00 +1°C° 0.1 mm 4 mps 736 mmHg 54%
    10:00 +3°C° 0.1 mm 4 mps 737 mmHg 49%
    11:00 +3°C° 0.1 mm 5 mps 737 mmHg 44%
    12:00 +3°C° 0.1 mm 5 mps 738 mmHg 42%
    13:00 +3°C° 0.1 mm 5 mps 738 mmHg 40%
    14:00 +3°C° 0.1 mm 5 mps 739 mmHg 39%
    15:00 +4°C° 0 mm 4 mps 739 mmHg 41%
    16:00 +4°C° 0 mm 3 mps 739 mmHg 43%
    17:00 +3°C° 0 mm 3 mps 740 mmHg 45%
    18:00 +3°C° 0 mm 2 mps 740 mmHg 50%
    19:00 +2°C° 0 mm 2 mps 741 mmHg 56%
    20:00 -1°C° 0 mm 2 mps 741 mmHg 61%
    21:00 -1°C° 0 mm 2 mps 741 mmHg 64%
    22:00 -1°C° 0 mm 2 mps 742 mmHg 68%
    23:00 -1°C° 0 mm 2 mps 742 mmHg 71%

    Tomorrow, 5 April, Sunday

    Time Temperature Precipitation Wind Pressure Humidity
    00:00 -1°C° 0 mm 2 mps 742 mmHg 72%
    01:00 -1°C° 0 mm 3 mps 742 mmHg 74%
    02:00 -1°C° 0 mm 3 mps 743 mmHg 75%
    03:00 -1°C° 0 mm 3 mps 743 mmHg 77%
    04:00 -2°C° 0 mm 3 mps 743 mmHg 80%
    05:00 -4°C° 0 mm 3 mps 744 mmHg 82%
    06:00 -3°C° 0 mm 4 mps 744 mmHg 75%
    07:00 -2°C° 0 mm 4 mps 745 mmHg 67%
    08:00 -1°C° 0 mm 5 mps 745 mmHg 60%
    09:00 0°C° 0 mm 5 mps 746 mmHg 52%
    10:00 +1°C° 0 mm 6 mps 746 mmHg 44%
    11:00 +2°C° 0 mm 6 mps 746 mmHg 36%
    12:00 +2°C° 0 mm 6 mps 747 mmHg 36%
    13:00 +2°C° 0 mm 6 mps 747 mmHg 37%
    14:00 +2°C° 0 mm 6 mps 747 mmHg 37%
    15:00 +2°C° 0 mm 6 mps 747 mmHg 38%
    16:00 +1°C° 0 mm 5 mps 748 mmHg 39%
    17:00 +1°C° 0 mm 5 mps 748 mmHg 40%
    18:00 0°C° 0 mm 4 mps 748 mmHg 45%
    19:00 0°C° 0 mm 3 mps 749 mmHg 50%
    20:00 -2°C° 0 mm 3 mps 749 mmHg 55%
    21:00 -2°C° 0 mm 2 mps 750 mmHg 57%
    22:00 -3°C° 0 mm 2 mps 750 mmHg 59%
    23:00 -1°C° 0 mm 1 mps 750 mmHg 61%

    Day after tomorrow, 6 April, Monday

    Time Temperature Precipitation Wind Pressure Humidity
    00:00 -1°C° 0 mm 1 mps 750 mmHg 61%
    01:00 -1°C° 0 mm 1 mps 751 mmHg 60%
    02:00 -1°C° 0 mm 1 mps 751 mmHg 60%
    03:00 -1°C° 0 mm 1 mps 751 mmHg 59%
    04:00 -1°C° 0 mm 1 mps 751 mmHg 58%
    05:00 -1°C° 0 mm 1 mps 751 mmHg 57%
    06:00 +1°C° 0 mm 1 mps 751 mmHg 56%
    07:00 +1°C° 0 mm 2 mps 751 mmHg 54%
    08:00 +2°C° 0 mm 2 mps 751 mmHg 53%
    09:00 +3°C° 0 mm 2 mps 751 mmHg 57%
    10:00 +4°C° 0 mm 2 mps 751 mmHg 61%
    11:00 +5°C° 0 mm 2 mps 751 mmHg 65%
    12:00 +5°C° 0 mm 2 mps 751 mmHg 71%
    13:00 +4°C° 0 mm 2 mps 751 mmHg 77%
    14:00 +3°C° 0 mm 3 mps 751 mmHg 83%
    15:00 +4°C° 0 mm 2 mps 751 mmHg 87%
    16:00 +4°C° 0 mm 2 mps 751 mmHg 91%
    17:00 +4°C° 0 mm 1 mps 751 mmHg 94%
    18:00 +4°C° 0.1 mm 1 mps 751 mmHg 95%
    19:00 +4°C° 0.1 mm 1 mps 751 mmHg 96%
    20:00 +4°C° 0.1 mm 1 mps 751 mmHg 97%
    21:00 +3°C° 0.1 mm 1 mps 752 mmHg 97%
    22:00 +3°C° 0.1 mm 1 mps 752 mmHg 97%
    23:00 +2°C° 0.1 mm 0 mps 752 mmHg 97%

    7 April, Tuesday

    Time Temperature Precipitation Wind Pressure Humidity
    00:00 +3°C° 0 mm 1 mps 752 mmHg 97%
    01:00 +3°C° 0 mm 1 mps 752 mmHg 96%
    02:00 +1°C° 0 mm 2 mps 752 mmHg 96%
    03:00 +1°C° 0 mm 2 mps 752 mmHg 96%
    04:00 +1°C° 0 mm 2 mps 752 mmHg 96%
    05:00 -1°C° 0 mm 2 mps 752 mmHg 95%
    06:00 +2°C° 0 mm 2 mps 751 mmHg 89%
    07:00 +4°C° 0 mm 2 mps 751 mmHg 82%
    08:00 +6°C° 0 mm 2 mps 751 mmHg 76%
    09:00 +7°C° 0 mm 3 mps 751 mmHg 68%
    10:00 +9°C° 0 mm 3 mps 750 mmHg 60%
    11:00 +11°C° 0 mm 4 mps 750 mmHg 53%
    12:00 +12°C° 0 mm 4 mps 750 mmHg 49%
    13:00 +13°C° 0 mm 4 mps 749 mmHg 46%
    14:00 +14°C° 0 mm 5 mps 749 mmHg 42%
    15:00 +13°C° 0 mm 4 mps 748 mmHg 45%
    16:00 +13°C° 0 mm 4 mps 748 mmHg 47%
    17:00 +12°C° 0 mm 3 mps 747 mmHg 50%
    18:00 +11°C° 0 mm 3 mps 747 mmHg 55%
    19:00 +9°C° 0 mm 3 mps 746 mmHg 60%
    20:00 +8°C° 0 mm 3 mps 746 mmHg 65%
    21:00 +8°C° 0 mm 3 mps 746 mmHg 67%
    22:00 +8°C° 0 mm 3 mps 745 mmHg 69%
    23:00 +6°C° 0 mm 4 mps 745 mmHg 71%

    8 April, Wednesday

    Time Temperature Precipitation Wind Pressure Humidity
    00:00 +6°C° 0 mm 4 mps 745 mmHg 74%
    01:00 +6°C° 0 mm 4 mps 744 mmHg 77%
    02:00 +7°C° 0 mm 3 mps 744 mmHg 79%
    03:00 +6°C° 0.1 mm 4 mps 744 mmHg 81%
    04:00 +6°C° 0.1 mm 4 mps 743 mmHg 82%
    05:00 +6°C° 0.1 mm 4 mps 743 mmHg 84%
    06:00 +6°C° 0 mm 5 mps 743 mmHg 83%
    07:00 +6°C° 0 mm 5 mps 744 mmHg 82%
    08:00 +6°C° 0 mm 5 mps 744 mmHg 82%
    09:00 +6°C° 0 mm 5 mps 744 mmHg 80%
    10:00 +7°C° 0 mm 4 mps 744 mmHg 79%
    11:00 +7°C° 0 mm 4 mps 744 mmHg 77%
    12:00 +8°C° 0 mm 4 mps 744 mmHg 73%
    13:00 +8°C° 0 mm 4 mps 744 mmHg 70%
    14:00 +10°C° 0 mm 4 mps 744 mmHg 66%
    15:00 +10°C° 0 mm 3 mps 744 mmHg 63%
    16:00 +10°C° 0 mm 3 mps 744 mmHg 60%
    17:00 +11°C° 0 mm 3 mps 744 mmHg 57%
    18:00 +9°C° 0 mm 2 mps 744 mmHg 63%
    19:00 +8°C° 0 mm 2 mps 743 mmHg 69%
    20:00 +6°C° 0 mm 2 mps 743 mmHg 75%
    21:00 +6°C° 0 mm 2 mps 743 mmHg 78%
    22:00 +5°C° 0 mm 2 mps 742 mmHg 81%
    23:00 +5°C° 0 mm 2 mps 742 mmHg 84%

    9 April, Thursday

    Time Temperature Precipitation Wind Pressure Humidity
    00:00 +5°C° 0 mm 2 mps 741 mmHg 84%
    01:00 +4°C° 0 mm 3 mps 741 mmHg 85%
    02:00 +3°C° 0 mm 3 mps 740 mmHg 85%
    03:00 +3°C° 0 mm 3 mps 740 mmHg 87%
    04:00 +3°C° 0 mm 3 mps 739 mmHg 89%
    05:00 +3°C° 0 mm 3 mps 738 mmHg 91%
    06:00 +4°C° 0 mm 4 mps 738 mmHg 83%
    07:00 +5°C° 0 mm 4 mps 737 mmHg 75%
    08:00 +6°C° 0 mm 5 mps 737 mmHg 66%
    09:00 +7°C° 0 mm 5 mps 736 mmHg 62%
    10:00 +8°C° 0 mm 6 mps 736 mmHg 58%
    11:00 +10°C° 0 mm 6 mps 735 mmHg 54%
    12:00 +9°C° 0.1 mm 6 mps 735 mmHg 60%
    13:00 +7°C° 0.1 mm 6 mps 735 mmHg 67%
    14:00 +5°C° 0.1 mm 6 mps 734 mmHg 73%
    15:00 +6°C° 0.4 mm 5 mps 734 mmHg 70%
    16:00 +6°C° 0.4 mm 5 mps 735 mmHg 66%
    17:00 +5°C° 0.4 mm 5 mps 735 mmHg 63%
    18:00 +4°C° 0.1 mm 4 mps 735 mmHg 65%
    19:00 +3°C° 0.1 mm 4 mps 736 mmHg 68%
    20:00 +2°C° 0.1 mm 3 mps 736 mmHg 70%
    21:00 0°C° 0 mm 4 mps 737 mmHg 71%
    22:00 -1°C° 0 mm 4 mps 737 mmHg 73%
    23:00 -1°C° 0 mm 4 mps 737 mmHg 74%
    Show more